Retour au catalogue

STARLINK-35106

ActifCommunicationsVLEO
NORAD 65739·PAYLOAD·🇺🇸 United States

Lancé Sep 25, 2025 depuis Cape Canaveral Space Force Station

Loading…

Prochains Passages (prochaines 24 heures)

TLE

FraisSource: CelesTrak SupGP

Époque: Sep 14, 2026, 22:46 UTC

1 65739C 25216F   26257.94909722 -.00061988  00000+0 -18312-2 0  2577
2 65739  53.1571 171.9876 0001307  87.0577 345.3718 15.34426724    18

Suivez STARLINK-35106 en temps réel avec AllMySat

Download on the App Store